Honolulu, HI

9:17 AM HST on July 28, 2017 (GMT -1000)
Honolulu International

Weather History for PHNL - November, 2012

Change the Weather History Date:

Sunday, November 4, 2012

  Actual Average Record
Temperature  
Mean Temperature 77 °F 79 °F  
Max Temperature 83 °F 85 °F 89 °F (1990)
Min Temperature 70 °F 72 °F 61 °F (1992)
Degree Days  
Heating Degree Days 0 0  
Month to date heating degree days 0 0  
Since 1 July heating degree days 0 0  
Cooling Degree Days 12 14  
Month to date cooling degree days 45 56  
Year to date cooling degree days 3910 4002  
Growing Degree Days 26 (Base 50)    
Moisture  
Dew Point 65 °F    
Average Humidity 70    
Maximum Humidity 84    
Minimum Humidity 55    
Precipitation  
Precipitation 0.00 in 0.08 in 3.81 in (2007)
Month to date precipitation 0.00 0.34  
Year to date precipitation 8.37 11.78  
Snow  
Snow 0.00 in - - ()
Month to date snowfall 0.0  
Since 1 July snowfall 0.0  
Since 1 September snowfall 0.0  
Snow Depth 0.00 in    
Sea Level Pressure  
Sea Level Pressure 29.97 in    
Wind  
Wind Speed 4 mph (WNW)    
Max Wind Speed 13 mph    
Max Gust Speed 16 mph    
Visibility 10 miles    
Events      
T = Trace of Precipitation, MM = Missing Value Source: NWS Daily Summary

Daily Weather History Graph

Daily Weather History Graph

Search for Another Location

Airport or City:

Trip Planner

Search our weather history database for the weather conditions in past years. The results will help you decide how hot, cold, wet, or windy it might be!

Date:

Astronomy

Nov. 04, 2012 Rise Set
Actual Time 6:36 AM HST 5:53 PM HST
Civil Twilight 6:13 AM HST 6:16 PM HST
Nautical Twilight 5:47 AM HST 6:43 PM HST
Astronomical Twilight 5:20 AM HST 7:09 PM HST
Moon 10:47 PM HST (11/4) 11:20 AM HST (11/4)
Length of Visible Light 12h 03m
Length of Day
11h 17m
Waning Gibbous, 70% of the Moon is Illuminated
Nov 4
Waning Gibbous
Nov 6
Last Quarter
Nov 13
New
Nov 20
First Quarter
Nov 28
Full

Hourly Weather History & Observations

Time (HST) Temp. Heat Index Dew Point Humidity Pressure Visibility Wind Dir Wind Speed Gust Speed Precip Events Conditions
12:53 AM 71.1 °F - 64.0 °F 78% 29.97 in 10.0 mi Calm Calm - N/A   Partly Cloudy
1:53 AM 72.0 °F - 64.0 °F 76% 29.97 in 10.0 mi NNW 3.5 mph - N/A   Partly Cloudy
2:53 AM 72.0 °F - 66.0 °F 81% 29.96 in 10.0 mi NNW 3.5 mph - N/A   Scattered Clouds
3:53 AM 72.0 °F - 64.9 °F 78% 29.95 in 10.0 mi NNW 3.5 mph - N/A   Scattered Clouds
4:53 AM 71.1 °F - 64.9 °F 81% 29.96 in 10.0 mi North 3.5 mph - N/A   Scattered Clouds
5:53 AM 72.1 °F - 61.7 °F 70% 29.96 in 10.0 mi North 4.6 mph - N/A   Partly Cloudy
6:53 AM 72.0 °F - 62.4 °F 72% 29.97 in 10.0 mi NNE 3.5 mph - N/A   Partly Cloudy
7:53 AM 73.9 °F - 64.9 °F 73% 29.98 in 10.0 mi NNW 4.6 mph - N/A   Partly Cloudy
8:53 AM 79.0 °F - 66.0 °F 64% 29.99 in 10.0 mi Variable 3.5 mph - N/A   Partly Cloudy
9:53 AM 79.0 °F - 64.9 °F 62% 30.00 in 10.0 mi SSW 4.6 mph - N/A   Partly Cloudy
10:53 AM 81.0 °F 82.7 °F 64.9 °F 58% 29.99 in 10.0 mi SE 5.8 mph - N/A   Partly Cloudy
11:53 AM 82.0 °F 83.4 °F 64.0 °F 54% 29.98 in 10.0 mi SSW 6.9 mph - N/A   Scattered Clouds
12:53 PM 82.9 °F 84.6 °F 64.9 °F 54% 29.96 in 10.0 mi SSW 10.4 mph - N/A   Mostly Cloudy
1:53 PM 82.0 °F 83.8 °F 64.9 °F 56% 29.94 in 10.0 mi SSW 11.5 mph - N/A   Mostly Cloudy
2:53 PM 81.0 °F 83.0 °F 66.0 °F 60% 29.94 in 10.0 mi SW 10.4 mph - N/A   Mostly Cloudy
3:53 PM 81.0 °F 83.0 °F 66.0 °F 60% 29.94 in 10.0 mi SW 6.9 mph - N/A   Mostly Cloudy
4:53 PM 80.1 °F 82.1 °F 66.0 °F 62% 29.94 in 10.0 mi SSW 4.6 mph - N/A   Mostly Cloudy
5:53 PM 78.1 °F - 66.0 °F 66% 29.96 in 10.0 mi South 3.5 mph - N/A   Scattered Clouds
6:53 PM 77.0 °F - 66.0 °F 69% 29.97 in 10.0 mi Calm Calm - N/A   Partly Cloudy
7:53 PM 77.0 °F - 66.0 °F 69% 29.99 in 10.0 mi Calm Calm - N/A   Partly Cloudy
8:53 PM 73.9 °F - 64.9 °F 73% 29.99 in 10.0 mi NNE 3.5 mph - N/A   Partly Cloudy
9:53 PM 73.9 °F - 64.9 °F 73% 29.99 in 10.0 mi NNW 3.5 mph - N/A   Partly Cloudy
10:53 PM 73.0 °F - 64.9 °F 76% 29.99 in 10.0 mi North 3.5 mph - N/A   Partly Cloudy
11:53 PM 72.0 °F - 64.9 °F 78% 29.99 in 10.0 mi Calm Calm - N/A   Partly Cloudy